Location: Allen Lane School
(37.8198°N, 89.7382°W)
Time: 15:00:41
(UTC+00:00)

Hubble Space Telescope - Visible Passes

Search period start: 04 December 2022 00:00
Search period end: 14 December 2022 00:00
Orbit: 530 x 534 km, 28.5° (Epoch: 04 December)

Date Brightness Start Highest point End Pass type
(mag) Time Alt. Az. Time Alt. Az. Time Alt. Az.
05 Dec 3.7 12:04:57 10° S 12:06:02 11° SSE 12:07:06 10° SE visible
06 Dec 3.5 11:51:26 10° S 11:53:16 13° SSE 11:55:05 10° SE visible
07 Dec 3.4 11:38:15 10° SSW 11:40:30 14° SSE 11:42:46 10° SE visible
08 Dec 3.2 11:25:11 10° SSW 11:27:45 16° SSE 11:30:19 10° SE visible
09 Dec 3.0 11:13:03 13° SSW 11:15:00 18° S 11:17:47 10° SE visible
10 Dec 2.8 11:01:21 18° S 11:02:15 19° S 11:05:12 10° SE visible
11 Dec 2.7 10:49:34 20° S 10:49:34 20° S 10:52:34 10° SE visible
11 Dec 2.9 12:26:56 10° SW 12:29:59 20° S 12:33:01 10° SE visible
12 Dec 3.0 10:37:44 19° SSE 10:37:44 19° SSE 10:39:53 10° SE visible
12 Dec 2.9 12:14:18 10° SW 12:17:14 19° S 12:20:09 10° SE visible
13 Dec 3.3 10:25:51 16° SE 10:25:51 16° SE 10:27:11 10° SE visible
13 Dec 2.9 12:01:42 10° SW 12:04:28 18° S 12:07:14 10° SSE visible
